Simultaneous Nadir Overpasses (SNOs) Predictions

Prediction of SNOs between GOES-15 and METOP-B Satellite Orbit:

Table of predicted SNOs for the next 14.0 days since TLE Epoch: 1/8/2022
Index Date Time (GOES-15) GOES-15 Lat,Lon METOP-B Lat,Lon Distance(km) Time Diff (sec)
1 01/09/2022 06:09:32 0.05,-128.29 -0.19,-129.35 120.43 80
2 01/10/2022 05:46:12 0.06,-128.31 0.95,-124.36 450.20 80
3 01/11/2022 18:07:43 -0.05,-128.33 0.09,-128.91 65.81 80
4 01/14/2022 06:06:02 0.05,-128.35 -0.00,-128.51 18.40 80
5 01/16/2022 18:01:33 -0.04,-128.38 -0.11,-128.08 34.34 80
6 01/18/2022 06:23:13 0.03,-128.37 -0.94,-132.66 489.30 80
7 01/19/2022 05:59:53 0.03,-128.38 0.20,-127.68 80.23 80
8 01/20/2022 18:21:23 -0.02,-128.39 0.82,-132.23 437.62 80
9 01/21/2022 17:58:03 -0.02,-128.39 -0.26,-127.23 131.85 80
